#timestamp,LO_Frequency,Hit,StdDev 
1643461215.3,286046998.6,N
1643461235.2,286046998.1,N
1643461255.0,286047000.4,N
1643461255.9,286047000.4,N
1643461275.8,286046998.2,N
1643461295.6,286046998.7,N
1643461315.4,286046998.4,N
1643461335.3,286047001.0,N
1643461355.1,286047000.9,N
1643461375.8,286047000.6,N
1643461395.7,286047000.9,N
1643461415.5,286046998.9,N
1643461435.4,286047001.1,N
1643461455.2,286047001.2,N
1643461475.0,286046998.4,N
1643461475.9,286046998.4,N
1643461495.8,286047001.0,N
1643461515.6,286046998.3,N
1643461535.4,286047000.0,N
1643461555.3,286047000.1,N
1643461575.1,286047004.1,Y
1643461595.9,286047004.0,P
1643461615.7,286047001.7,N
1643461635.5,286047001.8,N
1643461655.4,286047004.1,N
1643461675.2,286047003.7,N
1643461695.1,286047002.7,N
1643461696.0,286047002.7,N
1643461715.8,286047002.4,N
1643461735.6,286047002.3,N
1643461755.5,286047000.3,N
1643461775.3,286047001.8,N
1643461795.1,286047002.8,N
1643461815.9,286047000.8,N
1643461835.7,286047000.2,N
1643461855.6,286047002.4,N
1643461875.4,286046998.7,N
1643461895.2,286046997.0,N
1643461915.1,286046998.3,N
1643461916.0,286046998.3,N
1643461935.8,286047002.3,N
1643461955.7,286047000.2,N
1643461975.5,286047000.2,N
1643461995.3,286047002.8,N
1643462015.2,286047001.0,N
1643462035.0,286046999.9,N
1643462035.9,286046999.9,N
1643462055.7,286047003.2,N
1643462075.6,286047001.3,N
1643462095.4,286046999.7,N
1643462115.3,286047004.0,N
1643462135.1,286047000.0,N
1643462136.0,286047000.0,N
1643462155.8,286047000.8,N
1643462175.7,286046998.4,N
1643462195.5,286046998.9,N
1643462215.3,286046998.7,N
1643462235.2,286046996.6,N
1643462255.0,286046999.0,N
1643462255.9,286046999.0,N
1643462275.8,286046999.2,N
1643462295.6,286046997.1,N
1643462315.4,286046996.7,N
1643462365.3,286046997.8,E
1643462375.2,286046996.9,N
1643462395.1,286046999.8,P
1643462396.0,286046999.8,N
1643462415.8,286047002.3,N
1643462435.6,286047002.5,N
1643462455.5,286047001.9,N
1643462475.3,286046999.9,N
1643462495.2,286047002.8,N
1643462515.9,286047000.8,N
1643462535.7,286047000.6,N
1643462555.6,286046998.6,N
1643462575.4,286046998.6,N
1643462595.2,286046998.4,N
1643462615.1,286046998.2,N
1643462616.0,286046998.2,N
1643462635.8,286046998.2,N
1643462655.7,286046996.5,N
1643462675.5,286046997.0,N
1643462695.3,286046999.2,N
1643462715.2,286046999.4,N
1643462735.0,286046998.4,N
1643462735.9,286046998.4,N
1643462755.1,286046999.0,N
1643462775.8,286046997.2,N
1643462795.7,286046999.0,N
1643462815.5,286046996.7,N
1643462835.4,286046999.1,N
1643462885.2,286046999.5,E
1643462895.2,286046998.7,N
1643462915.9,286046999.4,P
1643462935.7,286046996.9,P
1643462955.6,286046996.7,Y
1643462975.4,286047000.9,P
1643462995.2,286046999.7,N
1643463015.1,286047002.3,N
1643463016.0,286047002.3,N
1643463035.8,286047002.7,N
1643463055.7,286047000.9,N
1643463075.5,286047000.5,N
1643463095.3,286047000.3,N
1643463115.2,286046999.7,N
1643463135.0,286046999.9,N
1643463135.9,286046999.9,N
1643463155.7,286046998.4,N
1643463175.6,286046999.0,N
1643463195.4,286046999.5,N
1643463215.3,286046997.0,N
1643463235.1,286046996.6,N
1643463236.0,286046996.6,N
1643463255.8,286046999.3,N
1643463275.7,286046996.8,N
1643463295.5,286046997.8,N
1643463315.3,286046996.6,N
1643463335.2,286046999.5,N
1643463355.0,286046997.8,N
1643463355.9,286046997.8,N
1643463375.8,286046997.7,N
1643463395.6,286046997.3,N
1643463415.4,286046997.8,N
1643463435.3,286046997.4,N
1643463455.1,286046996.8,N
1643463475.8,286046997.5,N
1643463495.7,286046997.9,N
1643463515.5,286046997.9,N
1643463535.4,286046997.9,N
1643463555.2,286046997.4,N
1643463575.0,286046997.5,N
1643463575.9,286046997.5,N
1643463595.8,286046996.9,N
1643463615.6,286046997.0,N
1643463635.5,286046997.6,N
1643463655.3,286046997.6,N
1643463675.1,286046998.0,N
1643463695.9,286046997.3,Y
1643463715.7,286046998.6,P
1643463735.6,286046998.6,P
1643463755.4,286047001.2,N
1643463775.2,286047000.3,N
1643463795.1,286047000.6,N
1643463796.0,286047000.6,N
1643463815.8,286047000.9,N
1643463835.7,286047000.1,N
1643463855.5,286047000.5,N
1643463875.4,286047000.4,N
1643463895.2,286046998.5,N
1643463915.0,286046998.6,N
1643463915.9,286046998.6,N
1643463935.8,286046999.2,N
1643463955.6,286046996.5,Y
1643463975.5,286046997.3,P
1643463995.3,286046999.2,N
1643464015.1,286046999.5,N
1643464035.9,286046999.3,N
1643464055.7,286046998.4,N
1643464075.5,286046998.4,N
1643464095.4,286046998.7,N
1643464115.2,286046998.8,N
1643464135.1,286046999.0,N
1643464136.0,286046999.0,N
1643464155.8,286046997.4,Y
1643464175.6,286046999.4,P
1643464195.5,286047001.2,P
1643464215.3,286046998.1,N
1643464235.2,286046998.1,N
1643464255.9,286046998.3,N
1643464275.7,286047001.2,N
1643464295.6,286047001.2,N
1643464315.4,286047001.2,N
1643464335.2,286046998.9,N
1643464355.1,286046998.4,N
1643464356.0,286046998.4,N
1643464375.8,286047001.2,N
1643464395.7,286046998.1,N
1643464415.5,286047001.2,N
1643464435.3,286046998.7,N
1643464455.2,286046998.5,N
1643464475.0,286046998.6,N
1643464475.9,286046998.6,N
1643464495.7,286046998.1,N
1643464515.6,286046998.8,N
1643464535.4,286047001.0,N
1643464555.3,286047000.5,N
1643464575.1,286046999.8,N
1643464576.0,286046999.8,N
1643464595.8,286046998.2,N
1643464615.7,286046999.6,N
1643464635.5,286046996.5,N
1643464655.3,286046996.7,N
1643464675.2,286046997.7,N
1643464695.0,286046997.6,N
1643464695.9,286046997.6,N
1643464715.8,286046997.6,N
1643464735.6,286046997.3,N
1643464755.4,286046997.2,N
1643464775.3,286046996.7,N
1643464795.1,286046997.3,N
